When you browse on this site, cookies collect data to enhance your experience and personalize the content and advertising you see.
Visit our Privacy Policy to learn more. By continuing to use the site, you agree to this use of cookies and data.
  • In Netherlands
  • List of Countries
  • For 7 days
  • Water Temperature
  • Satellite Maps
  • Weather Map
  • Weather Widgets
  • user-avatar
    Login

    Hourly Weather Wronki

    Today, 24 June, Monday

    Time Temperature Precipitation Wind Pressure Humidity
    00:00 +16°C° 0 mm 2 mps 762 mmHg 75%
    01:00 +15°C° 0 mm 2 mps 762 mmHg 73%
    02:00 +15°C° 0 mm 2 mps 762 mmHg 80%
    03:00 +14°C° 0 mm 2 mps 762 mmHg 86%
    04:00 +13°C° 0 mm 2 mps 762 mmHg 92%
    05:00 +15°C° 0 mm 2 mps 762 mmHg 86%
    06:00 +17°C° 0 mm 2 mps 763 mmHg 79%
    07:00 +20°C° 0 mm 2 mps 763 mmHg 71%
    08:00 +21°C° 0 mm 2 mps 763 mmHg 65%
    09:00 +24°C° 0 mm 3 mps 763 mmHg 59%
    10:00 +26°C° 0 mm 3 mps 762 mmHg 53%
    11:00 +27°C° 0 mm 3 mps 762 mmHg 50%
    12:00 +28°C° 0 mm 4 mps 762 mmHg 47%
    13:00 +28°C° 0 mm 4 mps 762 mmHg 43%
    14:00 +28°C° 0 mm 4 mps 762 mmHg 44%
    15:00 +28°C° 0 mm 4 mps 762 mmHg 45%
    16:00 +28°C° 0 mm 4 mps 762 mmHg 45%
    17:00 +27°C° 0 mm 3 mps 762 mmHg 51%
    18:00 +27°C° 0 mm 3 mps 762 mmHg 58%
    19:00 +26°C° 0 mm 2 mps 762 mmHg 64%
    20:00 +24°C° 0 mm 3 mps 762 mmHg 69%
    21:00 +22°C° 0 mm 3 mps 763 mmHg 73%
    22:00 +20°C° 0 mm 3 mps 763 mmHg 78%
    23:00 +20°C° 0 mm 3 mps 763 mmHg 77%

    Tomorrow, 25 June, Tuesday

    Time Temperature Precipitation Wind Pressure Humidity
    00:00 +19°C° 0 mm 3 mps 763 mmHg 76%
    01:00 +19°C° 0 mm 3 mps 763 mmHg 76%
    02:00 +18°C° 0 mm 3 mps 763 mmHg 78%
    03:00 +17°C° 0 mm 3 mps 763 mmHg 81%
    04:00 +17°C° 0 mm 3 mps 762 mmHg 83%
    05:00 +18°C° 0 mm 3 mps 763 mmHg 78%
    06:00 +20°C° 0 mm 3 mps 763 mmHg 73%
    07:00 +21°C° 0 mm 4 mps 763 mmHg 67%
    08:00 +23°C° 0 mm 4 mps 763 mmHg 64%
    09:00 +26°C° 0 mm 4 mps 763 mmHg 60%
    10:00 +28°C° 0 mm 4 mps 763 mmHg 56%
    11:00 +29°C° 0 mm 4 mps 762 mmHg 56%
    12:00 +30°C° 0 mm 5 mps 762 mmHg 55%
    13:00 +32°C° 0 mm 5 mps 762 mmHg 55%
    14:00 +32°C° 0 mm 4 mps 762 mmHg 55%
    15:00 +32°C° 0 mm 4 mps 761 mmHg 54%
    16:00 +33°C° 0 mm 4 mps 761 mmHg 54%
    17:00 +31°C° 0 mm 3 mps 761 mmHg 59%
    18:00 +30°C° 0 mm 2 mps 761 mmHg 64%
    19:00 +29°C° 0 mm 2 mps 761 mmHg 68%
    20:00 +28°C° 0 mm 2 mps 761 mmHg 73%
    21:00 +26°C° 0 mm 2 mps 761 mmHg 77%
    22:00 +25°C° 0 mm 2 mps 761 mmHg 82%
    23:00 +24°C° 0 mm 2 mps 761 mmHg 84%

    Day after tomorrow, 26 June, Wednesday

    Time Temperature Precipitation Wind Pressure Humidity
    00:00 +24°C° 0 mm 2 mps 761 mmHg 86%
    01:00 +23°C° 0 mm 1 mps 761 mmHg 88%
    02:00 +23°C° 0 mm 1 mps 761 mmHg 88%
    03:00 +23°C° 0 mm 1 mps 761 mmHg 89%
    04:00 +23°C° 0 mm 1 mps 760 mmHg 90%
    05:00 +25°C° 0 mm 1 mps 760 mmHg 83%
    06:00 +26°C° 0 mm 2 mps 760 mmHg 76%
    07:00 +28°C° 0 mm 2 mps 760 mmHg 69%
    08:00 +30°C° 0 mm 2 mps 760 mmHg 62%
    09:00 +31°C° 0 mm 2 mps 760 mmHg 55%
    10:00 +34°C° 0 mm 3 mps 760 mmHg 48%
    11:00 +35°C° 0 mm 3 mps 760 mmHg 44%
    12:00 +36°C° 0 mm 3 mps 759 mmHg 40%
    13:00 +37°C° 0 mm 3 mps 759 mmHg 37%
    14:00 +37°C° 0 mm 3 mps 759 mmHg 36%
    15:00 +38°C° 0 mm 4 mps 758 mmHg 36%
    16:00 +38°C° 0 mm 4 mps 758 mmHg 36%
    17:00 +36°C° 0 mm 3 mps 758 mmHg 42%
    18:00 +35°C° 0 mm 3 mps 758 mmHg 48%
    19:00 +34°C° 0 mm 3 mps 757 mmHg 54%
    20:00 +31°C° 0.6 mm 3 mps 758 mmHg 63%
    21:00 +29°C° 0.6 mm 3 mps 758 mmHg 71%
    22:00 +27°C° 0.6 mm 3 mps 758 mmHg 79%
    23:00 +26°C° 0.6 mm 3 mps 758 mmHg 84%

    27 June, Thursday

    Time Temperature Precipitation Wind Pressure Humidity
    00:00 +25°C° 0.6 mm 3 mps 758 mmHg 89%
    01:00 +23°C° 0.6 mm 4 mps 758 mmHg 94%
    02:00 +22°C° 0 mm 4 mps 758 mmHg 93%
    03:00 +21°C° 0 mm 4 mps 759 mmHg 92%
    04:00 +20°C° 0 mm 4 mps 759 mmHg 91%
    05:00 +20°C° 0 mm 5 mps 759 mmHg 87%
    06:00 +20°C° 0 mm 5 mps 759 mmHg 83%
    07:00 +19°C° 0 mm 5 mps 759 mmHg 79%
    08:00 +19°C° 0 mm 5 mps 760 mmHg 75%
    09:00 +19°C° 0 mm 5 mps 760 mmHg 72%
    10:00 +20°C° 0 mm 5 mps 760 mmHg 69%
    11:00 +21°C° 0 mm 5 mps 760 mmHg 64%
    12:00 +22°C° 0 mm 5 mps 760 mmHg 59%
    13:00 +25°C° 0 mm 5 mps 760 mmHg 54%
    14:00 +25°C° 0 mm 4 mps 759 mmHg 53%
    15:00 +26°C° 0 mm 4 mps 759 mmHg 52%
    16:00 +26°C° 0 mm 4 mps 759 mmHg 51%
    17:00 +25°C° 0 mm 3 mps 759 mmHg 56%
    18:00 +25°C° 0 mm 3 mps 759 mmHg 61%
    19:00 +24°C° 0 mm 2 mps 759 mmHg 66%
    20:00 +21°C° 0 mm 2 mps 759 mmHg 71%
    21:00 +20°C° 0 mm 2 mps 759 mmHg 77%
    22:00 +18°C° 0 mm 2 mps 759 mmHg 82%
    23:00 +18°C° 0 mm 2 mps 759 mmHg 83%

    28 June, Friday

    Time Temperature Precipitation Wind Pressure Humidity
    00:00 +17°C° 0 mm 2 mps 759 mmHg 85%
    01:00 +16°C° 0 mm 2 mps 759 mmHg 86%
    02:00 +15°C° 0 mm 2 mps 759 mmHg 87%
    03:00 +15°C° 0 mm 2 mps 759 mmHg 88%
    04:00 +13°C° 0 mm 3 mps 759 mmHg 89%
    05:00 +14°C° 0 mm 3 mps 758 mmHg 85%
    06:00 +17°C° 0 mm 4 mps 758 mmHg 80%
    07:00 +17°C° 0 mm 5 mps 758 mmHg 76%
    08:00 +19°C° 0 mm 5 mps 758 mmHg 72%
    09:00 +20°C° 0 mm 5 mps 758 mmHg 68%
    10:00 +21°C° 0 mm 5 mps 758 mmHg 64%
    11:00 +22°C° 0 mm 5 mps 758 mmHg 62%
    12:00 +23°C° 0 mm 5 mps 758 mmHg 60%
    13:00 +23°C° 0 mm 4 mps 758 mmHg 59%
    14:00 +25°C° 0 mm 4 mps 758 mmHg 57%
    15:00 +25°C° 0 mm 4 mps 758 mmHg 55%
    16:00 +26°C° 0 mm 4 mps 758 mmHg 53%
    17:00 +25°C° 0 mm 3 mps 758 mmHg 55%
    18:00 +24°C° 0 mm 3 mps 759 mmHg 57%
    19:00 +23°C° 0 mm 2 mps 759 mmHg 60%
    20:00 +20°C° 0 mm 2 mps 759 mmHg 61%
    21:00 +19°C° 0 mm 2 mps 759 mmHg 63%
    22:00 +17°C° 0 mm 2 mps 759 mmHg 64%
    23:00 +16°C° 0 mm 2 mps 760 mmHg 67%

    29 June, Saturday

    Time Temperature Precipitation Wind Pressure Humidity
    00:00 +15°C° 0 mm 2 mps 760 mmHg 70%
    01:00 +14°C° 0 mm 2 mps 760 mmHg 74%
    02:00 +14°C° 0 mm 2 mps 760 mmHg 75%
    03:00 +14°C° 0 mm 2 mps 759 mmHg 76%
    04:00 +14°C° 0 mm 2 mps 759 mmHg 76%
    05:00 +16°C° 0 mm 2 mps 759 mmHg 70%
    06:00 +18°C° 0 mm 2 mps 759 mmHg 64%
    07:00 +21°C° 0 mm 1 mps 759 mmHg 57%
    08:00 +22°C° 0 mm 1 mps 759 mmHg 52%
    09:00 +24°C° 0 mm 1 mps 759 mmHg 48%
    10:00 +26°C° 0 mm 1 mps 759 mmHg 43%
    11:00 +26°C° 0 mm 2 mps 759 mmHg 41%
    12:00 +27°C° 0 mm 2 mps 759 mmHg 39%
    13:00 +28°C° 0 mm 2 mps 759 mmHg 38%
    14:00 +28°C° 0 mm 2 mps 759 mmHg 37%
    15:00 +28°C° 0 mm 3 mps 758 mmHg 37%
    16:00 +28°C° 0 mm 3 mps 758 mmHg 36%
    17:00 +27°C° 0 mm 3 mps 758 mmHg 42%
    18:00 +25°C° 0 mm 3 mps 758 mmHg 47%
    19:00 +24°C° 0 mm 3 mps 758 mmHg 52%
    20:00 +21°C° 0 mm 3 mps 759 mmHg 54%
    21:00 +19°C° 0 mm 3 mps 759 mmHg 56%
    22:00 +17°C° 0 mm 2 mps 759 mmHg 58%
    23:00 +16°C° 0 mm 2 mps 759 mmHg 60%
    Show more